Vorticity
nan nan nan nan nan nan nan nan nan nan nan nan nan nan nan nan nan nan nan nan nan nan nan nan nan nan nan nan nan nan nan nan nan nan nan nan nan nan nan nan nan nan nan nan
nan 10 8 6 4 4 8 10 5 10 12 11 11 11 19 10 9 7 6 6 6 7 14 13 9 5 7 4 4 7 6 7 6 6 8 9 9 9 9 9 7 9 9 nan
nan 4 9 7 6 9 10 9 9 7 10 11 11 8 12 7 11 11 6 7 7 12 14 12 13 4 5 7 7 8 8 6 6 6 6 7 8 8 9 9 10 9 11 nan
nan 11 9 8 9 12 9 9 6 4 10 13 5 12 8 14 7 5 4 6 5 6 12 12 12 8 5 6 6 9 10 8 8 8 7 8 8 7 8 9 11 8 8 nan
nan 11 14 11 7 9 10 10 7 8 13 6 6 19 10 11 12 10 5 6 6 8 9 8 11 10 6 8 7 7 9 9 9 9 9 8 8 8 10 10 11 12 12 nan
nan 6 12 9 13 8 11 7 8 13 12 7 12 4 9 10 10 16 13 8 1 4 11 9 11 14 9 8 8 9 9 10 10 9 9 9 8 7 9 10 9 11 10 nan
nan 10 12 11 13 8 10 9 7 5 11 10 8 8 9 6 12 23 17 3 5 5 2 7 14 15 12 9 8 11 9 9 9 8 8 7 8 9 8 8 9 8 6 nan
nan 11 16 11 13 11 6 8 6 11 7 9 9 8 11 9 15 21 17 5 6 6 2 9 18 12 11 8 7 9 8 8 8 8 8 9 9 9 9 9 9 8 8 nan
nan 6 6 10 14 9 8 12 9 1 10 15 7 4 10 13 11 22 23 13 11 6 8 15 13 8 8 8 9 7 6 8 9 9 9 9 9 9 9 8 8 8 9 nan
nan 13 1 8 12 10 15 5 6 9 12 5 10 12 7 10 7 13 25 17 18 9 13 14 8 8 8 8 8 8 9 8 9 9 8 9 9 8 8 8 8 8 7 nan
nan 7 7 13 8 6 4 8 11 15 7 8 9 10 16 6 3 16 14 4 20 18 12 7 8 8 9 8 9 7 7 8 9 8 9 9 8 8 8 9 8 8 9 nan
nan 2 18 3 6 17 13 10 4 5 9 9 11 8 14 12 10 12 13 9 4 15 14 12 9 8 8 8 8 7 8 9 8 7 9 9 9 9 10 10 11 9 7 nan
nan 6 7 5 12 15 15 10 8 7 17 12 5 12 9 10 15 13 5 9 5 15 13 8 10 8 8 8 7 7 10 10 8 9 9 10 10 11 11 10 8 8 9 nan
nan 15 15 11 6 4 4 8 6 9 10 15 7 12 9 10 6 9 8 8 5 2 7 14 16 14 9 9 7 7 9 10 9 10 9 9 9 8 8 7 9 10 8 nan
nan 11 9 12 9 5 10 7 5 7 5 11 16 11 8 11 10 14 11 6 8 3 6 9 7 11 13 12 10 11 10 9 10 8 10 8 9 8 8 9 8 9 10 nan
nan 15 13 11 12 7 8 6 11 9 14 13 11 9 12 5 14 17 12 6 8 6 5 8 6 5 11 11 11 11 7 7 9 10 11 10 7 9 9 10 10 9 8 nan
nan 12 11 11 10 8 12 17 11 10 12 14 10 10 9 10 13 12 13 19 8 2 5 7 8 9 11 9 10 11 11 13 11 11 8 9 9 9 10 9 7 7 9 nan
nan 12 9 10 11 13 6 12 17 14 5 1 11 25 9 9 11 10 17 18 15 15 13 12 10 9 9 12 15 14 7 2 12 11 13 10 9 9 8 8 8 10 9 nan
nan 8 11 16 7 6 10 14 12 9 4 19 18 8 14 10 8 4 13 13 16 18 16 19 16 10 12 9 7 7 11 14 9 6 6 9 10 10 10 9 9 7 9 nan
nan 11 10 9 13 10 7 2 10 13 1 10 29 11 4 6 9 8 10 19 19 16 15 13 12 14 10 8 10 10 8 9 6 12 10 9 10 10 10 7 8 11 12 nan
nan 10 10 11 9 8 10 9 12 9 8 15 21 18 10 2 10 12 7 13 18 15 13 10 11 11 13 14 8 6 8 10 10 9 10 11 10 8 8 12 10 11 11 nan
nan 9 8 13 15 4 -0 22 21 12 6 9 6 9 11 13 16 13 8 11 12 10 9 11 11 9 7 11 10 10 9 10 11 9 9 10 9 9 10 10 9 10 10 nan
nan 11 14 11 6 4 9 13 13 17 17 10 -2 -1 14 20 13 12 9 9 10 9 9 10 10 8 9 12 12 9 8 11 8 10 9 9 10 11 10 7 8 8 9 nan
nan 10 9 10 13 9 9 6 10 13 18 9 11 11 5 7 9 9 10 8 9 8 8 11 10 7 7 10 13 11 11 9 10 10 9 8 8 10 9 8 9 9 8 nan
nan 9 10 4 8 17 13 12 17 6 2 9 9 9 12 10 5 6 10 10 9 8 8 10 8 9 10 10 10 11 11 10 10 10 10 9 10 10 8 10 11 10 10 nan
nan nan nan nan nan nan nan nan nan nan nan nan nan nan nan nan nan nan nan nan nan nan nan nan nan nan nan nan nan nan nan nan nan nan nan nan nan nan nan nan nan nan nan nan
CAPE
0 0 0 0 0 0 0 0 0 0 2 72 89 85 508 681 189 212 396 593 307 387 280 361 632 384 117 78 111 48 60 190 1071 722 1210 1253 1410 1141 661 709 224 617 217 547
0 0 0 0 0 0 0 0 0 2 24 4 15 96 230 213 496 320 353 121 95 160 206 317 830 611 388 188 30 36 73 39 1263 1253 905 1376 1239 938 209 735 225 346 443 150
0 0 0 0 0 0 0 0 1 26 0 0 0 18 485 451 422 194 99 51 57 214 29 49 1047 860 593 290 240 118 102 79 324 1707 1347 1501 986 435 327 299 353 375 375 156
0 0 0 0 0 0 0 0 41 6 2 0 0 0 34 471 511 365 79 1 93 204 132 301 1026 894 594 376 662 621 297 197 644 1374 1813 1231 1104 917 766 319 152 379 330 215
0 0 0 0 0 0 0 0 0 0 0 0 0 0 0 3 680 449 191 143 311 220 355 815 1156 1211 742 845 956 902 458 484 1425 1837 1604 1185 1341 1119 950 826 683 729 891 336
0 0 0 0 0 0 0 0 0 0 0 0 0 0 13 25 4 214 308 265 110 56 114 935 590 1598 1603 1538 1749 1588 853 2312 2327 1709 1904 1490 1306 1315 1117 703 466 228 218 193
0 0 0 0 0 0 0 0 0 0 0 0 0 0 13 12 15 27 266 264 58 0 0 579 792 1681 2223 2443 2779 2914 2600 2564 1968 1921 1901 1473 1735 1522 1179 757 229 107 78 79
0 0 0 0 0 0 0 0 6 11 0 2 0 0 0 0 0 0 434 399 240 3 1 486 1197 1998 2385 2628 2778 2896 2448 2242 2018 2396 2323 2064 1796 1301 745 262 1 0 12 26
0 0 0 0 0 0 0 0 0 0 0 0 0 0 0 0 0 0 4 267 540 642 298 599 1734 1906 2141 2328 2551 2617 2418 2341 2417 2260 2107 1895 1371 875 76 0 0 0 0 62
0 0 0 0 0 0 0 0 0 0 0 0 0 0 0 0 3 2 335 625 580 798 1077 1759 1851 1866 2285 2571 2730 2783 2536 2311 2139 2294 1883 1452 1110 325 25 0 5 3 0 152
0 0 0 0 0 0 0 0 0 0 0 0 0 0 0 0 0 40 315 369 385 1486 1831 1919 1944 1884 2223 2716 2775 2653 2368 2324 2448 2113 1623 1460 499 109 55 0 2 2 175 29
0 0 0 0 0 0 0 0 0 0 0 0 0 0 21 64 8 141 205 305 543 709 1611 1716 1879 1758 2476 2503 2543 2454 2374 2589 2482 1825 1589 1499 621 0 0 0 23 241 103 22
0 0 0 0 0 0 0 0 0 0 0 2 42 39 0 6 0 242 497 600 499 937 1270 1534 1749 2012 2349 2392 2506 2429 2320 2604 2066 1527 1087 449 35 49 252 607 501 449 499 282
0 0 0 0 0 0 0 0 0 0 0 0 0 6 19 2 0 0 101 330 863 897 711 1351 1931 2156 2321 2473 2423 2306 2167 1972 1460 698 230 0 725 849 716 435 519 480 488 412
0 0 0 0 0 0 5 0 0 0 0 8 36 32 13 0 0 43 196 510 397 159 237 1243 1832 1968 2155 2237 2121 1820 1479 1369 654 182 95 303 761 523 369 403 422 434 197 38
0 0 0 0 0 0 0 0 1 0 0 0 0 15 7 0 0 1 158 199 162 208 269 544 1367 1467 2409 1784 1515 1323 948 496 403 247 364 612 488 367 364 449 173 76 11 0
13 4 0 0 0 0 0 0 0 0 5 4 1 3 12 5 22 0 0 202 260 150 38 425 0 405 2078 1355 1503 1077 664 514 385 745 626 504 241 277 371 190 70 32 0 0
12 2 0 0 0 0 0 0 0 2 0 0 1 0 0 0 0 981 583 712 504 0 127 1490 792 2240 1760 1289 906 838 681 423 230 245 188 149 182 268 97 16 0 0 0 0
0 0 0 0 0 0 0 10 0 1 0 397 1 35 0 0 172 714 2031 269 549 2093 2076 2037 2349 2066 1474 1078 984 461 429 263 114 34 1 0 1 37 0 0 0 0 0 0
0 0 0 0 0 0 0 166 256 12 172 411 15 31 37 523 133 65 1899 2224 1813 1871 1746 1680 1914 1683 1201 151 154 29 239 188 18 0 34 20 0 0 0 0 0 0 0 0
0 3 6 0 0 0 348 175 416 216 674 747 671 12 310 256 0 283 1383 1692 1694 1620 1375 1135 1036 667 29 0 7 0 53 1 4 41 0 0 0 0 0 0 0 0 0 0
0 123 221 96 0 26 39 229 299 330 432 1336 1304 1369 1292 80 16 1487 1557 1585 1485 1377 1160 862 608 302 63 1 0 0 0 72 0 0 0 0 0 0 0 0 0 0 0 0
133 4 5 116 165 4 7 233 100 401 745 432 365 699 262 505 1688 1537 1287 1141 866 701 536 473 143 44 34 48 12 41 2 0 0 0 0 0 0 0 0 0 0 0 0 0
9 9 16 70 84 3 98 71 84 186 482 538 1261 399 1038 1565 1807 1461 1019 742 403 278 154 85 35 2 0 0 0 0 0 0 0 0 0 0 0 0 0 0 0 0 0 0
1 16 2 10 89 4 8 74 59 9 49 302 566 1479 1866 1842 1581 1213 800 492 249 120 0 0 0 0 0 0 0 0 0 0 0 0 0 0 0 0 0 0 0 0 0 0
1 1 19 205 40 0 10 47 119 248 380 137 1350 2144 1860 1689 1296 1153 838 548 228 43 4 0 0 0 0 0 0 0 0 0 0 0 0 0 0 0 0 0 0 0 0 0